Terminal Aerodrome Forecast
Issued by NWS Portland, OR

Home | Current Version | Previous Version | Text Only | Print | Product List | Glossary On
Versions: 1 2 3 4 5 6 7 8 9 10 11 12 13 14 15 16 17 18 19 20 21 22 23 24 25 26 27 28
000
FTUS46 KPQR 080540
TAFEUG
TAF
KEUG 080540Z 0806/0906 22004KT P6SM SCT250
     FM081300 VRB03KT P6SM SCT011 SCT250
     FM081700 34007KT P6SM SCT080 SCT250
     FM090200 24006KT P6SM SCT250=

USA.gov is the U.S. government's official web portal to all federal, state and local government web resources and services.